Overview Statistics Trail Chart Weather Telemetry Raw packets
 

This is the latest recevied weather packets stored in our database for station/object KN1OBI-13. If no packets are shown the sender has not sent any weather packets the latest 10 day(s).

<< 4 5 6 7 8 9 10 >>
Time Temp. Humidity Pressure Rain* Wind** Luminosity Snow
1788536192 25.56° C 67% 990.1 hPa 0 mm - - -
1788535592 25.56° C 71% 990 hPa 0 mm - - -
1788534992 25° C 72% 990.2 hPa 0 mm - - -
1788534392 25° C 75% 990.1 hPa 0 mm - - -
1788533792 24.44° C 75% 990.1 hPa 0 mm - - -
1788533192 24.44° C 74% 990.3 hPa 0 mm - - -
1788532592 24.44° C 76% 990 hPa 0 mm - - -
1788531992 23.89° C 76% 990.3 hPa 0 mm - - -
1788531392 23.89° C 77% 990.3 hPa 0 mm - - -
1788530792 23.33° C 77% 990.3 hPa 0 mm - - -
1788530192 23.33° C 78% 990.3 hPa 0 mm - - -
1788529592 22.78° C 79% 990.4 hPa 0 mm - - -
1788528992 22.78° C 80% 990 hPa 0 mm - - -
1788528392 22.22° C 83% 990.3 hPa 0 mm - - -
1788527792 22.22° C 84% 990.4 hPa 0 mm - - -
1788527192 21.67° C 85% 990.3 hPa 0 mm - - -
1788526592 21.67° C 87% 990.3 hPa 0 mm - - -
1788525992 21.11° C 88% 990.4 hPa 0 mm - - -
1788525392 21.11° C 89% 990.4 hPa 0 mm - - -
1788524792 20.56° C 90% 990.3 hPa 0 mm - - -
1788524192 20.56° C 91% 990.5 hPa 0 mm - - -
1788523607 20° C 92% 990.2 hPa 0 mm - - -
1788522992 20° C 92% 990.2 hPa 0 mm - - -
1788522392 19.44° C 92% 990.1 hPa 0 mm - - -
1788521792 18.89° C 92% 990 hPa 0 mm - - -

* Rain latest hour (hover to see other rain measurements)
** Current wind speed in m/s (hover to see current wind gust speed)